Location: Stoke Bliss
(52.2667°N, 2.5167°W)
Time: 02:02:52
(UTC+00:00)

MOS 1 - Pass Details

Date: 03 March 2021
Orbit: 878 x 892 km, 99.1° (Epoch: 11 April)

Event Time Altitude Azimuth Distance (km) Brightness Sun altitude
Exits shadow 19:25:58 12° 141° (SE) 2,436 6.2 -14.9°
Maximum altitude 19:31:10 55° 66° (ENE) 1,066 4.4 -15.7°
Drops below altitude 10° 19:36:42 10° 351° (N) 2,559 7.0 -16.5°
Sets 19:39:09 0° 347° (NNW) 3,500 7.8 -16.9°
